G4ZMG Weather Reports


time (UTC)temp
F
wind
direction
speed
knots
gust
knots
rain 1hr
in
rain 24hr
in
rain mn
in
humidity
%
barometer
mb
20260507155044 58 193 0.0 0.0 0.00 0.00 0.00 60 1013.0
20260507154027 58 199 0.0 1.7 0.00 0.00 0.00 61 1013.1
20260507153047 58 210 0.0 0.0 0.00 0.00 0.00 62 1013.1
20260507152028 58 160 0.0 3.5 0.00 0.00 0.00 61 1013.2
20260507151004 58 200 0.0 1.7 0.00 0.00 0.00 60 1013.1
20260507150043 58 170 0.0 3.5 0.00 0.00 0.00 60 1013.2
20260507145029 58 175 0.0 0.0 0.00 0.00 0.00 59 1013.3
20260507144003 58 215 0.0 0.0 0.00 0.00 0.00 57 1013.3
20260507143037 59 206 0.0 0.0 0.00 0.00 0.00 56 1013.3
20260507142023 60 175 0.0 4.3 0.00 0.00 0.00 56 1013.4
20260507141048 59 121 0.0 0.9 0.00 0.00 0.00 59 1013.4
20260507140027 58 129 0.0 0.0 0.00 0.00 0.00 59 1013.5
20260507135010 59 140 0.0 0.0 0.00 0.00 0.00 60 1013.6
20260507134050 59 175 0.0 1.7 0.00 0.00 0.00 59 1013.6
20260507133039 59 160 0.0 0.9 0.00 0.00 0.00 60 1013.7
20260507132031 59 204 0.0 0.9 0.00 0.00 0.00 61 1013.7
20260507131006 59 175 0.0 2.6 0.00 0.00 0.00 58 1013.7
20260507130011 60 145 0.0 1.7 0.00 0.00 0.00 59 1013.8
20260507125038 61 147 0.0 4.3 0.00 0.00 0.00 56 1013.8
20260507124023 60 168 0.0 3.5 0.00 0.00 0.00 60 1013.8
20260507123036 59 175 0.0 5.2 0.00 0.00 0.00 61 1013.9
20260507122013 58 91 0.0 5.2 0.00 0.00 0.00 64 1013.9
20260507121045 59 118 0.0 2.6 0.00 0.00 0.00 65 1014.1
20260507120042 59 175 0.0 0.9 0.00 0.00 0.00 65 1014.1
20260507115029 58 202 0.0 0.0 0.00 0.00 0.00 67 1014.1
20260507114038 58 238 0.0 1.7 0.00 0.00 0.00 67 1014.2
20260507113038 57 199 0.0 0.0 0.00 0.00 0.00 71 1014.2
20260507112022 57 99 0.0 0.0 0.00 0.00 0.00 68 1014.4
20260507111003 56 240 0.0 0.9 0.00 0.00 0.00 74 1014.5
20260507110040 56 140 0.0 0.9 0.00 0.00 0.00 74 1014.6
20260507105026 55 175 0.0 0.9 0.00 0.00 0.00 76 1014.8
20260507104003 53 74 0.0 0.0 0.00 0.00 0.00 78 1014.5
20260507103036 52 77 0.0 0.0 0.00 0.00 0.00 78 1014.7
20260507102023 52 145 0.0 0.0 0.00 0.00 0.00 79 1014.8
20260507101003 51 185 0.0 0.0 0.00 0.00 0.00 80 1015.0
20260507100010 51 192 0.0 0.0 0.00 0.00 0.00 81 1014.9
20260507095044 50 191 0.0 0.0 0.00 0.00 0.00 82 1015.0
20260507094029 50 210 0.0 0.0 0.00 0.00 0.00 83 1015.0
20260507093005 49 212 0.0 0.0 0.00 0.00 0.00 84 1014.9
20260507092043 48 157 0.0 0.0 0.00 0.00 0.00 85 1014.9
20260507091028 48 213 0.0 0.0 0.00 0.00 0.00 86 1014.9
20260507090025 47 0.0 0.0 0.00 0.00 0.00 87 1014.9
20260507085005 0 0.0 0.0 0.00 0.00 0.00 1015.0
20260507084027 0 0.0 0.0 0.00 0.00 0.00 1015.0
20260507083007 0 0.0 0.0 0.00 0.00 0.00 1015.0
20260507082043 0 0.0 0.0 0.00 0.00 0.00 1014.9
20260507081027 0 0.0 0.0 0.00 0.00 0.00 1014.9
20260507080030 0 0.0 0.0 0.00 0.00 0.00 1014.8
20260507075012 0 0.0 0.0 0.00 0.00 0.00 1014.8
20260507074010 44 293 0.0 0.0 0.00 0.00 0.00 91 1014.7
20260507073002 44 293 0.0 0.0 0.00 0.00 0.00 91 1014.7
20260507072030 44 291 0.0 0.0 0.00 0.00 0.00 91 1014.8
20260507071013 43 290 0.0 0.0 0.00 0.00 0.00 91 1014.6
20260507070046 43 290 0.0 0.0 0.00 0.00 0.00 92 1014.6
20260507065031 43 290 0.0 0.0 0.00 0.00 0.00 92 1014.7
20260507064010 43 289 0.0 0.0 0.00 0.00 0.00 92 1014.5
20260507063002 43 289 0.0 0.0 0.00 0.00 0.00 92 1014.5
20260507062043 42 289 0.0 0.0 0.00 0.00 0.00 92 1014.5
20260507061022 42 289 0.0 0.0 0.00 0.00 0.00 92 1014.5
20260507060027 42 0.0 0.0 0.00 0.00 0.00 92 1014.4
20260507055006 42 0.0 0.0 0.00 0.00 0.00 92 1014.4
20260507054030 42 0.0 0.0 0.00 0.00 0.00 92 1014.4
20260507053007 42 0.0 0.0 0.00 0.00 0.00 92 1014.3
20260507052043 42 0.0 0.0 0.00 0.00 0.00 92 1014.3
20260507051026 0 0.0 0.0 0.00 0.00 0.00 1014.3
20260507050035 0 0.0 0.0 0.00 0.00 0.00 1014.2
20260507045005 42 7 0.0 0.0 0.00 0.00 0.00 91 1014.3
20260507044025 42 7 0.0 0.0 0.00 0.00 0.00 91 1014.3
20260507043044 42 7 0.0 0.0 0.00 0.00 0.00 91 1014.2
20260507042027 42 7 0.0 0.0 0.00 0.00 0.00 91 1014.1
20260507041010 42 7 0.0 0.0 0.00 0.00 0.00 91 1014.1
20260507040009 42 7 0.0 0.0 0.00 0.00 0.00 91 1014.1
20260507035033 42 7 0.0 0.0 0.00 0.00 0.00 91 1014.1
20260507034009 42 7 0.0 0.0 0.00 0.00 0.00 91 1014.1
20260507033002 42 7 0.0 0.0 0.00 0.00 0.00 91 1014.1
20260507032045 42 7 0.0 0.0 0.00 0.00 0.00 91 1014.1
20260507031024 42 6 0.0 0.0 0.00 0.00 0.00 91 1014.3
20260507030036 42 6 0.0 0.0 0.00 0.00 0.00 90 1014.2
20260507025022 42 16 0.0 0.0 0.00 0.00 0.00 90 1014.2
20260507024003 42 16 0.0 0.0 0.00 0.00 0.00 90 1014.1
20260507023031 42 15 0.0 0.0 0.00 0.00 0.00 90 1014.1
20260507022044 42 14 0.0 0.0 0.00 0.00 0.00 90 1014.1
20260507021028 42 16 0.0 0.0 0.00 0.00 0.00 90 1014.2
20260507020010 42 15 0.0 0.0 0.00 0.00 0.00 90 1014.1
20260507015044 42 17 0.0 0.0 0.00 0.00 0.00 90 1014.1
20260507014028 43 16 0.0 0.0 0.00 0.00 0.00 89 1014.3
20260507013006 43 20 0.0 0.0 0.00 0.00 0.00 89 1014.3
20260507012035 43 19 0.0 0.0 0.00 0.00 0.00 89 1014.4
20260507011003 43 21 0.0 0.0 0.00 0.00 0.00 89 1014.4
20260507010006 43 20 0.0 0.0 0.00 0.00 0.00 88 1014.3
20260507005040 43 20 0.0 0.0 0.00 0.00 0.00 88 1014.3
20260507004029 43 23 0.0 0.0 0.00 0.00 0.00 88 1014.2
20260507003013 43 25 0.0 0.0 0.00 0.00 0.00 88 1014.4
20260507002044 43 24 0.0 0.0 0.00 0.00 0.00 88 1014.4
20260507001027 43 64 0.0 0.0 0.00 0.00 0.00 87 1014.2
20260507000009 43 18 0.0 0.0 0.00 0.00 0.00 87 1014.4
20260506235004 44 20 0.0 0.0 0.00 0.00 0.00 87 1014.4
20260506234043 44 33 0.0 0.0 0.00 0.00 0.00 86 1014.5
20260506233036 44 52 0.0 0.0 0.00 0.00 0.00 86 1014.6
20260506232028 44 52 0.0 0.0 0.00 0.00 0.00 86 1014.5
20260506231013 44 45 0.0 0.0 0.00 0.00 0.00 85 1014.4
20260506230009 44 33 0.0 0.0 0.00 0.00 0.00 85 1014.3
20260506225002 44 38 0.0 0.0 0.00 0.00 0.00 84 1014.3
20260506224043 45 35 0.0 0.0 0.00 0.00 0.00 84 1014.3
20260506223033 45 360 0.0 0.0 0.00 0.00 0.00 84 1014.3
20260506222010 45 22 0.0 0.0 0.00 0.00 0.00 83 1014.3
20260506221007 45 32 0.0 0.0 0.00 0.00 0.00 83 1014.3
20260506220035 45 13 0.0 0.0 0.00 0.00 0.00 82 1014.2
20260506215029 45 15 0.0 0.0 0.00 0.00 0.00 82 1014.2
20260506214020 45 28 0.0 0.0 0.00 0.00 0.00 81 1014.1
20260506213011 45 97 0.0 0.0 0.00 0.00 0.00 80 1014.0
20260506212009 45 27 0.0 0.0 0.00 0.00 0.00 79 1014.0
20260506211004 46 351 0.0 0.0 0.00 0.00 0.00 78 1013.9
20260506210004 46 349 0.0 0.0 0.00 0.00 0.00 77 1013.9
20260506205044 46 350 0.0 0.0 0.00 0.00 0.00 77 1013.7
20260506204041 47 16 0.0 0.0 0.00 0.00 0.00 76 1013.7
20260506203035 47 10 0.0 0.0 0.00 0.00 0.00 76 1013.6
20260506202032 47 38 0.0 0.0 0.00 0.00 0.00 75 1013.6
20260506201022 47 38 0.0 0.0 0.00 0.00 0.00 74 1013.5
20260506200046 48 38 0.0 0.0 0.00 0.00 0.00 73 1013.4
20260506195035 48 37 0.0 0.0 0.00 0.00 0.00 72 1013.2
20260506194029 49 38 0.0 0.0 0.00 0.00 0.00 71 1013.1
20260506193010 49 91 0.0 0.0 0.00 0.00 0.00 69 1013.0
20260506192006 50 97 0.0 0.0 0.00 0.00 0.00 67 1013.1
20260506191001 51 48 0.0 0.0 0.00 0.00 0.00 65 1013.0
20260506190046 51 60 0.0 0.0 0.00 0.00 0.00 64 1012.8
20260506185042 52 33 0.0 0.0 0.00 0.00 0.00 63 1012.8
20260506184037 52 43 0.0 0.0 0.00 0.00 0.00 61 1012.7
20260506183027 53 76 0.0 1.7 0.00 0.00 0.00 57 1012.6
20260506182009 53 62 0.0 0.9 0.00 0.00 0.00 56 1012.7
20260506181049 54 60 0.0 0.9 0.00 0.00 0.00 56 1012.5
20260506180009 54 77 0.0 0.0 0.00 0.00 0.00 55 1012.6
20260506175004 54 40 0.0 0.0 0.00 0.00 0.00 56 1012.4
20260506174045 54 99 0.0 0.9 0.00 0.00 0.00 55 1012.3
20260506173040 54 59 0.0 0.0 0.00 0.00 0.00 56 1012.3
20260506172025 54 108 0.0 1.7 0.00 0.00 0.00 55 1012.4
20260506171006 55 64 0.0 0.9 0.00 0.00 0.00 54 1012.3
20260506170039 55 68 0.9 0.9 0.00 0.00 0.00 53 1012.3
20260506165031 56 106 0.0 2.6 0.00 0.00 0.00 50 1012.2
20260506164020 56 35 0.0 0.0 0.00 0.00 0.00 49 1012.0
20260506163009 56 321 0.0 0.9 0.00 0.00 0.00 51 1012.1
20260506162005 56 42 0.0 3.5 0.00 0.00 0.00 50 1012.2
20260506161044 57 40 0.0 0.0 0.00 0.00 0.00 50 1012.1
20260506160029 57 345 0.0 0.9 0.00 0.00 0.00 50 1012.1